WESTFORD NEEDLES, 2380

Orbit data source: Space-Track

WESTFORD NEEDLES, 2380 is space debris in LEO originally from a launch on Thu, 09 May 1963 UTC launched from the Air Force Western Test Range (AFWTR). Debris objects in space refer to the collection of defunct objects orbiting the Earth. Examples of debris include non-operational satellites, rocket bodies, and fragments generated from explosions, collisions, or faulty payload assembly.

Loading next visibility...
Identifier
2380, 1963-014AA
Orbit
LEO
Country
Flag of USUS
Related business
Manufacturer
Unknown
Mission
Spacecraft
Bus & Motor
Unknown
Mass
Unknown
Launch date (UTC)
1963-05-09 (63 years ago)
Launch vehicle
Unknown
Launch site
Air Force Western Test Range (AFWTR)
Object type
Payload
Rocket body
Debris
Shape & HBR
Unknown shape, 0.2 m
Radar Cross Section
Medium (>0.1 m² and <1 m²)

Expand to show TLE details & history
Last TLE update: 2 days ago

TLE from 2 days ago
0 WESTFORD NEEDLES
1 02380U 63014AA  26034.08082689  .00000203  00000-0  78720-1 0  9993
2 02380  87.1989  91.3372 0545514 300.7332  54.0880  8.68339924379437
Epoch: 2026-02-03T01:56Z
TLE epoch observation values (Epoch: 2026-02-03T01:56:23.443Z)
Latitude
-0.00001°
Longitude
-71.02737°
Altitude
3,323.246 km
Speed
6.506 km/s
True Right ascension
06h 05m 20s
True Declination
0° 00' 00"
Sunlit
Object was in daylight at epoch
Visualization orbit readout
Latitude
Unknown
Longitude
Unknown
Altitude
Unknown
Speed
Unknown
Apparent Right ascension
Unknown
Apparent Declination
Unknown
Sunlit
N/A
Visualization observer readout
Local Sidereal Time
20:49:28
Azimuth
Unknown
Elevation
Unknown
Doppler factor
Unknown
Orbital elements
Apogee altitude
4,163.659 km
Perigee altitude
3,073.016 km
Semi-major axis
9,996.475 km
Eccentricity
0.05455
Inclination
87.1989°
RAAN
91.3372°
Arg. of periapsis
300.7332°
True anomaly
59.35401°
Mean anomaly
54.088°
Eccentric anomaly
56.70038°
Mean motion
2.17157 °/min
Orbital period
165.78 mins
BSTAR
0.07872
Loading maneuver chart data...
Computing Atmospheric mass density...

Documentation

Showing up to 5 results
|